Wetbulb
50.51 50.54 50.56 49.61 49.67 49.82 49.61 49.82 50.25 50.57 51.46 52.19 52.79 54.05 54.87 54.78 54.94 50.82 48.28 49.65 46.71 41.33 42.76 46.06 46.47 43.08 42.28 41.20 39.04 42.19 41.86 42.60 41.83 38.84 39.15 38.53 37.50 39.14 37.45 38.41 37.16 37.27 35.51 34.88 37.12 35.39 35.20 50.82 50.66 46.95 48.88 51.12 52.99 52.61
50.38 50.22 49.89 49.41 49.37 49.41 49.50 49.53 49.95 50.63 50.86 52.12 52.73 53.97 54.84 54.49 54.39 53.03 45.52 50.05 53.39 48.39 43.43 46.34 48.43 49.26 47.71 47.05 42.81 42.12 40.42 41.19 43.00 40.24 40.96 40.21 39.24 40.08 37.28 36.04 42.30 38.21 41.07 39.71 40.84 40.18 47.62 49.62 49.69 51.86 52.44 52.37 53.56 53.34
50.19 50.02 49.66 49.11 49.05 49.03 49.05 49.50 49.87 50.83 51.07 51.96 52.50 53.76 54.47 54.23 54.09 53.68 47.97 48.08 46.91 46.89 45.37 41.11 43.57 47.42 47.92 48.95 49.51 41.48 42.40 43.90 46.01 50.52 43.20 40.62 38.84 41.32 36.53 38.18 39.34 42.69 45.46 40.84 41.17 43.72 47.21 49.14 50.59 53.29 53.85 53.48 55.28 55.51
49.66 49.75 49.71 49.40 48.80 49.04 49.14 49.39 50.15 51.00 51.43 51.73 52.56 53.37 53.99 54.14 53.32 52.85 51.07 51.19 50.13 46.76 42.31 40.86 47.78 46.62 48.75 47.71 48.63 49.15 46.34 45.59 45.21 46.44 45.33 43.02 41.11 42.86 39.37 40.80 40.27 42.81 42.89 41.30 40.89 44.15 46.46 48.30 49.55 52.52 53.47 54.30 54.75 55.72
49.01 49.35 49.87 48.53 48.69 49.20 49.86 50.73 51.18 51.68 51.73 51.98 52.79 53.31 53.63 53.62 52.50 49.89 49.11 52.55 52.96 44.89 41.48 41.15 45.90 46.34 46.97 46.31 47.12 48.27 45.93 45.92 46.43 45.92 44.68 40.03 42.23 42.25 41.05 40.08 38.73 43.78 41.22 38.80 39.28 44.36 44.77 46.28 48.84 52.90 52.37 52.77 53.72 54.36
48.68 49.22 48.45 48.34 48.79 49.58 50.12 50.59 51.17 51.66 52.13 52.62 52.26 52.09 53.12 52.82 51.91 47.97 47.97 51.50 52.59 51.98 45.44 40.02 42.74 44.14 46.54 48.08 49.13 45.81 45.80 46.06 47.44 45.26 44.50 45.92 48.01 45.76 41.75 38.33 43.19 45.42 45.56 44.80 43.63 47.79 47.44 48.77 50.32 52.19 52.40 52.77 53.79 53.87
48.26 48.01 48.02 48.40 49.90 49.50 50.63 51.00 51.09 51.68 52.19 52.46 52.15 52.03 52.22 51.95 46.67 45.60 44.07 50.59 53.26 52.86 44.99 40.36 38.31 42.94 46.89 48.32 47.33 47.14 47.42 45.43 46.10 46.62 41.92 41.66 42.68 46.78 43.13 39.06 43.72 45.68 46.49 47.61 47.97 47.42 45.49 49.27 48.38 51.20 52.63 54.12 54.36 54.19
48.07 48.22 48.60 49.87 50.32 50.40 51.05 51.14 51.41 51.81 52.63 52.54 51.94 52.12 52.06 51.70 50.47 45.97 48.09 51.67 53.51 49.26 47.32 41.06 38.12 39.63 46.31 42.91 41.70 45.66 44.03 43.80 43.28 42.47 44.14 41.75 42.15 43.44 41.13 43.92 43.81 47.02 48.28 47.55 47.86 48.33 48.14 49.98 49.22 50.58 52.24 52.92 52.73 52.63
48.84 49.29 49.87 50.45 50.75 50.74 51.37 51.41 51.38 52.25 52.43 52.38 52.44 52.05 49.49 46.35 44.88 50.26 55.09 55.13 53.99 50.32 43.79 43.25 36.13 34.39 44.42 42.33 42.32 42.91 43.26 39.10 43.31 44.29 44.86 45.44 42.38 40.96 42.49 42.70 44.34 46.62 46.93 47.59 49.74 50.30 50.21 48.48 49.72 50.64 51.38 51.80 52.98 52.81
48.95 49.44 49.80 50.48 50.89 51.26 51.50 51.50 51.45 51.00 51.38 51.61 48.73 46.16 47.95 51.63 56.57 54.66 48.90 48.10 47.95 48.32 46.89 41.61 41.94 37.46 41.72 40.80 40.57 41.94 42.96 37.74 38.16 42.38 45.97 42.34 39.19 44.65 47.00 47.49 48.04 48.82 48.57 48.92 46.69 46.50 48.47 48.98 49.95 51.00 50.97 52.03 52.19 51.97
49.17 49.34 49.87 50.43 51.02 51.52 51.36 51.24 51.28 51.02 50.60 46.71 47.66 48.71 52.20 55.53 48.53 49.29 45.84 43.92 42.90 42.31 42.91 42.36 39.85 37.84 43.35 39.36 40.28 43.29 38.85 42.01 37.04 39.22 40.74 40.47 40.06 44.29 47.12 46.66 48.25 48.98 49.81 50.72 50.11 49.96 50.61 50.80 50.69 50.43 50.51 51.50 52.75 53.01
49.18 49.46 50.04 50.67 51.28 51.32 51.40 50.98 50.73 47.36 46.08 45.88 45.67 46.42 46.46 46.20 47.19 44.60 43.22 44.44 42.79 38.86 41.78 40.00 40.83 41.69 41.86 43.61 43.43 43.14 40.11 41.33 36.80 43.90 40.51 37.64 41.68 45.04 44.35 47.86 49.86 50.76 50.55 50.27 51.11 51.09 52.86 52.85 52.22 50.96 50.96 51.96 52.52 53.27
49.43 49.85 50.30 50.57 51.00 51.18 51.20 50.84 50.80 51.11 49.80 46.73 46.78 47.37 46.90 45.50 39.13 40.37 35.82 38.09 37.36 41.50 43.43 43.50 41.60 43.47 44.01 42.15 41.92 41.20 38.67 37.66 43.54 39.28 38.48 41.14 44.39 44.84 47.20 48.90 50.80 52.73 52.83 52.33 52.48 53.57 53.42 52.15 52.28 52.30 52.19 52.65 53.27 52.75
49.80 49.93 50.21 50.52 50.90 50.85 51.08 50.82 50.95 50.01 44.98 42.76 43.59 37.15 41.57 40.75 39.61 39.59 40.29 41.04 44.77 43.35 43.04 43.39 41.89 41.74 40.53 41.72 40.08 39.28 40.52 41.01 36.70 32.98 35.15 40.23 42.59 46.46 48.65 50.65 51.52 52.08 51.43 51.61 51.29 51.95 52.43 53.14 52.39 52.49 52.08 52.92 53.06 53.72
49.87 50.23 50.49 50.25 51.64 51.99 51.11 50.95 51.11 47.59 44.43 42.43 44.18 36.83 39.44 42.65 43.74 44.78 46.07 44.25 45.13 42.96 40.14 39.39 38.39 40.64 37.53 37.03 38.11 39.22 38.61 34.07 34.87 34.48 38.97 42.78 43.84 46.38 48.65 49.78 50.82 52.05 51.95 51.45 51.26 51.95 51.99 53.34 53.14 51.38 51.88 52.64 53.01 54.25
50.32 50.08 49.91 51.29 51.31 51.10 51.12 50.94 48.45 46.37 45.34 43.49 42.96 40.95 43.08 42.00 42.50 42.97 43.20 42.22 43.68 42.39 40.29 42.06 38.47 36.08 35.20 36.21 35.81 37.02 34.28 33.03 36.71 39.77 43.25 43.34 43.91 45.52 48.78 49.79 51.20 52.38 52.06 51.52 51.89 51.97 52.32 51.96 51.34 52.06 53.56 53.53 54.29 54.33
50.02 46.83 51.82 51.00 50.38 50.43 50.95 46.32 46.20 45.26 45.24 47.09 43.31 45.23 43.57 43.74 43.59 44.42 44.06 45.16 44.91 43.89 40.74 39.08 38.29 37.33 36.67 33.80 33.75 37.27 36.33 38.54 40.59 42.21 42.57 42.52 43.67 44.92 48.55 49.68 50.31 51.50 52.24 51.96 52.48 52.42 52.74 53.04 52.97 52.38 52.49 53.59 53.84 53.61
46.12 48.95 51.38 50.25 49.96 48.64 49.55 46.46 46.28 47.21 44.66 45.25 42.82 44.06 44.91 46.05 44.66 44.42 44.68 45.12 45.05 43.90 41.27 39.80 38.90 33.32 32.77 32.66 33.98 38.39 39.98 41.66 41.96 42.23 42.36 42.76 43.79 45.04 48.63 48.78 49.94 50.87 51.53 52.35 52.45 52.30 52.51 52.85 51.66 51.63 52.92 53.56 53.73 53.30
48.01 48.59 49.63 50.03 49.73 46.60 45.06 49.33 47.87 42.67 44.41 44.89 44.85 44.71 44.57 44.99 46.10 47.80 46.21 45.31 45.57 45.35 43.24 39.87 36.61 34.36 35.04 37.36 38.73 39.54 40.50 40.98 41.52 42.24 43.78 43.09 43.73 44.18 46.87 48.78 48.64 49.10 51.49 52.04 51.16 50.43 50.28 51.64 52.22 52.82 52.64 52.81 51.95 52.81
50.25 50.34 50.46 50.56 49.79 45.63 45.53 45.68 50.45 46.39 43.12 43.62 44.03 43.55 43.91 45.34 45.94 46.73 46.80 46.12 44.51 43.16 40.16 38.99 38.74 38.80 38.90 40.23 41.39 41.35 41.53 42.02 41.03 39.93 39.93 42.11 43.32 43.65 48.28 47.85 47.00 48.16 49.66 50.96 51.02 48.12 50.40 50.60 52.05 51.33 49.36 49.24 50.71 50.59
49.17 50.64 51.36 49.90 46.87 45.82 44.80 43.69 44.40 45.64 45.12 43.64 45.05 44.34 44.13 45.81 45.77 43.27 43.55 44.96 42.80 41.51 40.19 40.87 41.50 42.61 42.91 42.68 42.73 42.27 41.74 41.92 41.22 41.64 41.00 40.75 43.08 43.71 46.43 48.14 47.61 46.66 46.64 46.94 47.61 48.33 48.21 48.87 49.48 50.54 49.88 49.06 48.98 50.11
47.77 51.53 50.47 50.12 48.08 48.64 46.47 46.44 45.07 45.93 44.82 45.33 44.44 44.39 44.67 44.36 44.44 44.21 45.33 43.05 43.61 44.05 44.34 43.58 43.59 43.37 43.24 42.10 42.26 42.54 43.94 42.80 42.85 42.62 43.45 42.68 45.27 43.91 43.43 45.85 44.64 45.27 44.68 45.78 45.96 45.39 46.00 48.01 49.84 49.49 49.20 49.17 48.46 48.81
48.72 49.35 47.00 48.80 47.90 43.44 41.91 47.21 44.53 44.40 42.31 42.77 44.68 43.70 43.29 42.28 45.45 46.16 42.73 45.95 46.24 48.54 45.26 44.46 44.60 44.31 42.86 43.75 43.97 43.31 43.80 42.76 41.99 42.14 42.84 43.34 44.22 46.01 46.23 47.03 47.09 47.21 45.41 44.47 45.95 46.81 45.83 45.58 47.64 49.51 49.85 49.96 49.80 49.59
49.04 47.48 47.64 47.41 46.69 39.98 45.14 43.87 45.73 45.16 44.44 43.64 42.83 42.17 43.95 45.39 46.32 42.89 40.71 42.93 44.79 44.54 43.55 43.61 43.87 43.39 43.38 42.80 42.01 42.96 44.01 43.70 42.50 42.50 42.89 42.82 42.73 45.32 46.71 45.93 45.04 44.71 44.79 45.21 45.10 45.31 46.09 47.43 45.75 48.01 49.20 48.80 47.65 48.90
43.82 42.75 42.04 35.31 43.33 45.62 43.13 44.54 44.75 43.88 41.58 41.99 42.39 42.07 43.26 45.84 40.59 38.78 37.45 39.59 41.84 42.83 42.91 46.14 42.79 42.66 41.95 41.94 41.85 43.09 44.36 44.61 43.47 42.93 44.11 45.26 46.09 45.21 44.33 44.50 44.17 44.54 45.12 44.20 44.58 45.46 45.23 45.10 45.06 45.91 48.49 48.38 48.68 49.18
38.57 42.07 38.51 43.15 42.70 42.41 44.02 43.24 43.49 43.17 43.31 43.25 43.19 43.87 44.72 41.86 39.11 37.27 38.96 40.62 42.23 43.81 44.45 45.33 44.48 43.52 42.81 42.61 42.36 42.69 44.23 44.92 44.29 43.32 44.29 45.39 46.37 45.04 43.89 43.35 43.14 44.70 46.15 45.86 46.02 45.37 46.01 45.72 45.38 46.06 46.38 45.98 43.94 47.64
36.43 39.08 42.08 44.94 43.84 45.29 45.09 46.88 47.45 44.22 43.32 42.73 42.54 42.01 42.20 39.58 39.01 40.81 43.20 43.90 43.87 45.22 45.88 46.40 45.83 44.46 44.46 44.16 44.00 45.18 45.55 45.55 45.81 46.46 45.69 45.12 46.25 46.96 46.08 44.66 43.15 43.88 45.06 48.54 47.83 47.06 47.52 47.70 47.40 47.56 46.79 45.91 46.35 47.45
43.90 42.99 40.44 42.67 43.54 44.62 44.07 45.18 45.79 44.39 43.56 43.40 43.92 42.03 41.23 41.92 40.10 44.35 45.25 46.40 46.50 46.17 45.84 45.69 46.88 47.11 45.19 44.78 45.28 44.67 44.62 45.88 46.07 44.55 43.06 42.76 43.45 45.13 46.67 47.13 47.16 42.72 46.09 47.05 47.45 46.50 45.15 45.47 46.03 47.25 46.84 46.17 45.86 46.82
42.84 44.66 44.38 42.34 44.00 44.14 45.27 45.59 45.18 45.69 47.29 45.04 44.13 44.06 43.82 44.96 47.26 46.89 45.72 46.94 46.32 43.80 43.26 43.55 44.11 43.79 44.18 43.76 44.35 44.28 45.08 44.98 43.48 41.31 40.32 40.36 41.00 43.73 45.37 44.31 43.20 44.24 44.96 45.79 41.95 42.33 43.18 43.69 47.71 47.89 47.45 46.27 45.67 45.06
42.41 45.29 43.34 43.70 43.20 42.34 44.70 47.11 47.51 50.35 50.45 49.45 47.04 46.14 45.66 46.91 47.19 45.27 44.19 43.56 43.36 43.19 43.95 44.62 43.83 43.34 43.67 43.78 43.51 43.74 44.27 45.18 44.53 43.48 41.94 41.38 42.50 44.13 44.85 44.60 43.96 43.89 43.14 42.73 42.19 41.10 41.13 45.24 43.98 45.08 43.75 42.61 41.19 41.66
44.62 44.02 43.45 43.33 43.04 45.26 46.91 49.62 49.70 49.26 48.46 47.85 47.41 45.38 45.24 47.01 47.41 46.24 44.16 44.49 44.55 43.99 43.36 43.35 43.45 43.74 43.57 42.98 42.47 43.41 42.99 44.57 45.19 46.12 45.98 45.14 44.12 44.38 44.96 45.79 45.45 44.62 44.10 43.44 43.27 41.72 41.01 41.99 43.69 43.61 43.34 42.90 43.27 41.93
43.26 42.52 41.92 41.16 42.68 46.80 49.76 47.39 46.01 46.37 45.62 46.33 46.16 47.51 46.50 45.27 43.11 45.33 47.40 44.79 43.68 43.45 44.11 44.18 43.84 44.91 46.30 47.50 46.21 46.35 43.02 45.97 46.51 46.51 46.88 45.40 44.45 44.66 45.24 45.74 44.96 44.99 44.55 44.74 44.30 43.65 43.01 42.74 42.16 43.79 44.24 44.35 44.46 44.28
46.86 44.14 44.49 43.54 42.61 44.07 47.20 46.97 45.50 45.58 46.56 46.06 46.43 46.73 45.80 45.63 44.07 47.30 49.21 48.44 48.51 46.41 45.03 45.20 45.97 45.99 45.90 46.82 47.10 46.64 44.34 47.16 44.40 41.59 41.54 41.49 41.55 42.43 43.62 44.62 44.69 45.79 45.25 44.00 43.78 43.55 44.63 44.31 43.69 43.52 43.93 43.99 43.83 43.85
MSLP
1025.59 1025.39 1025.14 1024.85 1024.45 1024.13 1023.88 1023.56 1023.21 1022.90 1022.65 1022.31 1021.99 1021.47 1021.00 1020.61 1020.30 1020.27 1019.96 1019.70 1019.94 1019.91 1018.87 1018.25 1017.93 1017.75 1017.64 1017.63 1017.54 1016.60 1015.95 1015.36 1014.97 1015.23 1015.18 1014.85 1014.30 1013.37 1013.04 1012.44 1012.06 1012.43 1012.65 1012.51 1011.87 1011.19 1010.21 1008.88 1007.98 1008.12 1008.58 1008.24 1008.29 1008.04
1025.46 1025.28 1025.04 1024.70 1024.36 1024.04 1023.75 1023.44 1023.10 1022.73 1022.49 1022.19 1022.00 1021.47 1021.08 1020.78 1020.47 1020.14 1020.34 1019.89 1019.67 1019.97 1018.97 1018.25 1017.56 1017.13 1017.00 1017.16 1017.65 1017.11 1016.82 1016.33 1015.65 1015.77 1015.97 1015.63 1015.30 1014.58 1014.37 1013.80 1012.69 1012.96 1012.77 1012.66 1012.25 1011.08 1010.12 1009.58 1009.26 1008.57 1008.61 1008.53 1008.36 1008.23
1025.31 1025.17 1024.85 1024.53 1024.28 1023.91 1023.58 1023.28 1022.95 1022.61 1022.29 1021.95 1021.91 1021.38 1021.11 1020.90 1020.49 1020.37 1020.58 1020.28 1019.99 1019.89 1018.69 1018.15 1016.80 1016.22 1016.32 1016.31 1016.55 1017.01 1016.42 1015.71 1015.58 1015.53 1016.02 1016.20 1016.09 1015.46 1015.04 1014.24 1013.56 1012.94 1012.61 1012.70 1012.32 1010.94 1010.26 1009.81 1009.18 1008.70 1008.53 1008.54 1008.12 1007.70
1025.13 1024.89 1024.59 1024.28 1024.02 1023.65 1023.34 1023.04 1022.71 1022.39 1022.08 1021.87 1021.65 1021.15 1021.00 1020.83 1020.59 1020.45 1020.37 1020.05 1020.06 1020.19 1019.73 1017.59 1016.44 1015.96 1015.51 1015.50 1015.70 1015.49 1015.30 1015.45 1015.55 1015.82 1015.93 1015.93 1015.85 1015.09 1014.83 1014.21 1013.98 1013.29 1012.79 1012.50 1012.06 1011.30 1010.35 1009.44 1008.96 1008.66 1008.21 1007.92 1007.84 1007.43
1024.90 1024.64 1024.30 1024.16 1023.81 1023.43 1023.10 1022.73 1022.38 1022.04 1021.75 1021.58 1021.36 1021.13 1020.86 1020.65 1020.37 1020.23 1020.23 1019.75 1019.75 1020.36 1019.99 1018.14 1016.57 1015.22 1015.11 1015.18 1015.05 1015.08 1015.49 1015.70 1015.47 1015.63 1015.72 1015.61 1014.91 1014.95 1014.42 1014.23 1013.36 1012.42 1012.06 1012.02 1011.44 1010.84 1010.50 1009.77 1008.98 1008.67 1008.48 1007.85 1007.47 1007.47
1024.57 1024.28 1024.05 1023.89 1023.52 1023.18 1022.86 1022.50 1022.14 1021.78 1021.51 1021.29 1021.18 1020.96 1020.70 1020.53 1020.26 1020.13 1019.97 1019.61 1019.57 1019.89 1019.91 1019.04 1017.37 1015.97 1014.93 1014.16 1014.13 1014.61 1014.97 1015.19 1014.94 1014.81 1014.66 1014.20 1013.67 1013.88 1013.81 1013.29 1011.57 1011.26 1011.01 1010.69 1010.73 1010.03 1009.81 1009.26 1008.69 1008.05 1008.02 1007.39 1006.95 1007.18
1024.20 1023.99 1023.78 1023.46 1023.08 1022.80 1022.46 1022.08 1021.79 1021.43 1021.25 1021.02 1020.80 1020.63 1020.55 1020.40 1020.53 1020.42 1020.08 1019.57 1019.40 1019.66 1019.98 1019.38 1018.08 1016.18 1015.10 1014.74 1014.67 1014.65 1014.52 1014.56 1014.61 1014.57 1014.46 1014.12 1013.69 1013.43 1013.14 1012.20 1011.45 1010.93 1010.63 1010.22 1009.91 1009.91 1009.55 1008.75 1008.03 1007.15 1007.17 1006.76 1006.61 1006.50
1023.87 1023.63 1023.34 1023.00 1022.68 1022.37 1022.02 1021.71 1021.42 1021.10 1020.76 1020.57 1020.41 1020.25 1020.14 1020.19 1020.22 1019.88 1018.78 1018.83 1019.42 1019.65 1019.80 1019.53 1018.34 1017.04 1015.43 1015.63 1015.76 1015.32 1015.25 1015.02 1014.67 1014.52 1014.20 1013.95 1013.53 1013.18 1012.46 1011.35 1011.23 1010.90 1010.40 1009.76 1009.61 1009.29 1008.73 1007.83 1007.45 1006.97 1006.62 1006.65 1006.50 1006.24
1023.43 1023.20 1022.89 1022.56 1022.21 1021.95 1021.65 1021.33 1020.99 1020.58 1020.27 1020.07 1019.94 1019.91 1020.07 1020.11 1019.65 1018.85 1018.42 1018.57 1019.10 1019.70 1019.44 1019.29 1018.77 1017.50 1015.91 1016.03 1016.10 1015.75 1015.63 1015.60 1014.90 1014.32 1013.68 1013.46 1012.90 1012.53 1011.68 1011.62 1011.40 1010.95 1010.71 1010.08 1009.22 1008.62 1007.92 1007.59 1006.90 1006.42 1006.24 1006.01 1006.00 1005.55
1023.11 1022.85 1022.51 1022.15 1021.84 1021.56 1021.25 1020.92 1020.51 1020.10 1019.66 1019.35 1019.79 1019.94 1019.40 1018.73 1018.39 1018.72 1019.00 1019.28 1019.44 1019.31 1019.41 1019.03 1018.29 1017.71 1016.78 1016.47 1016.14 1016.22 1015.85 1015.70 1015.02 1013.89 1013.26 1012.93 1012.37 1011.70 1011.42 1011.21 1010.87 1010.40 1009.80 1009.29 1008.99 1008.25 1007.57 1007.02 1006.71 1006.18 1005.68 1005.30 1005.29 1005.26
1022.64 1022.39 1022.09 1021.79 1021.44 1021.16 1020.89 1020.58 1020.23 1019.82 1019.44 1019.48 1019.58 1019.59 1019.25 1018.88 1018.98 1018.82 1018.83 1019.03 1019.07 1019.03 1018.67 1017.96 1017.73 1017.45 1016.40 1016.51 1016.33 1016.12 1015.98 1015.48 1014.99 1014.06 1013.63 1012.59 1011.95 1011.59 1011.19 1010.79 1010.05 1009.62 1009.13 1008.57 1008.10 1007.45 1007.11 1006.79 1006.17 1005.83 1005.37 1004.98 1004.82 1004.86
1022.20 1021.92 1021.65 1021.35 1021.01 1020.74 1020.48 1020.27 1020.09 1019.94 1019.85 1020.08 1020.09 1019.78 1019.54 1019.35 1018.91 1018.78 1018.33 1018.41 1018.43 1017.90 1017.12 1016.92 1016.43 1016.59 1016.24 1016.03 1016.13 1016.12 1015.88 1015.51 1014.56 1014.11 1013.74 1012.67 1011.95 1011.39 1011.06 1010.27 1009.53 1009.02 1008.35 1007.73 1007.25 1006.69 1006.19 1005.78 1005.30 1005.10 1004.91 1004.70 1004.31 1004.32
1021.75 1021.46 1021.18 1020.80 1020.44 1020.14 1019.91 1019.85 1019.85 1019.81 1019.69 1019.76 1019.82 1019.52 1019.23 1018.66 1018.52 1018.20 1017.86 1017.32 1017.12 1016.37 1015.68 1015.46 1015.79 1015.87 1015.95 1016.03 1016.03 1016.01 1015.72 1014.98 1014.37 1014.13 1013.24 1012.75 1011.99 1011.44 1010.78 1010.14 1009.31 1008.21 1007.84 1007.21 1006.45 1005.76 1005.33 1005.06 1004.78 1004.58 1004.37 1004.13 1004.10 1004.09
1021.28 1020.98 1020.64 1020.19 1019.75 1019.18 1018.84 1019.10 1019.45 1019.57 1019.70 1019.71 1019.26 1018.88 1018.54 1017.69 1017.23 1016.58 1016.08 1015.44 1014.79 1014.59 1014.47 1014.78 1015.18 1015.50 1015.51 1015.86 1015.72 1015.78 1015.04 1014.82 1014.44 1014.16 1013.61 1012.85 1012.23 1011.54 1010.69 1009.92 1008.86 1008.20 1007.84 1007.23 1006.41 1005.60 1004.85 1004.22 1004.03 1003.94 1003.90 1003.80 1003.85 1003.84
1020.81 1020.35 1019.92 1019.70 1019.21 1018.75 1018.50 1018.69 1019.04 1019.36 1019.55 1019.33 1018.63 1018.13 1017.26 1016.22 1015.53 1015.19 1014.90 1014.83 1013.96 1013.75 1013.90 1014.18 1014.59 1014.93 1015.36 1015.45 1015.39 1015.23 1015.13 1015.09 1014.97 1014.33 1013.39 1012.63 1012.21 1011.65 1010.73 1009.81 1008.97 1008.18 1007.77 1007.14 1006.42 1005.54 1004.35 1003.31 1003.57 1003.59 1003.47 1003.40 1003.28 1003.37
1020.41 1019.78 1019.28 1019.34 1019.14 1018.84 1018.71 1018.76 1019.01 1019.25 1019.09 1018.75 1017.94 1016.93 1015.93 1015.90 1015.20 1014.88 1014.56 1014.32 1013.29 1013.26 1013.70 1013.68 1014.20 1014.47 1014.73 1014.90 1015.20 1015.10 1015.26 1014.65 1013.79 1013.37 1012.75 1012.56 1012.26 1011.70 1010.90 1010.04 1009.06 1008.35 1007.80 1007.37 1006.71 1005.97 1004.92 1003.99 1003.82 1003.63 1003.39 1003.25 1003.34 1003.30
1020.19 1019.82 1019.31 1019.13 1018.87 1018.51 1018.28 1018.73 1019.01 1018.93 1018.29 1017.19 1016.32 1015.44 1015.36 1015.14 1014.71 1013.99 1013.63 1013.35 1013.39 1013.54 1014.21 1014.18 1014.17 1013.91 1014.17 1014.35 1014.63 1014.64 1014.10 1013.35 1012.97 1012.84 1012.71 1012.48 1012.34 1011.83 1011.03 1010.13 1009.33 1008.64 1007.92 1007.48 1007.22 1006.56 1005.76 1005.04 1004.22 1003.41 1003.90 1004.29 1004.14 1004.18
1020.12 1019.40 1019.25 1019.31 1019.11 1018.76 1018.59 1018.59 1018.37 1017.75 1017.07 1015.91 1015.59 1014.40 1014.37 1013.79 1013.55 1013.23 1013.04 1013.01 1013.20 1013.35 1013.77 1013.59 1013.51 1014.06 1014.18 1014.10 1013.87 1013.36 1013.12 1012.90 1012.80 1012.61 1012.47 1012.32 1012.20 1011.76 1011.19 1010.58 1009.63 1008.92 1008.22 1007.68 1007.70 1007.28 1006.68 1006.11 1005.34 1005.42 1005.28 1004.83 1004.57 1004.90
1019.57 1019.29 1019.12 1019.36 1019.45 1019.41 1018.74 1017.77 1017.47 1016.81 1015.39 1014.71 1013.96 1013.50 1013.27 1012.89 1012.59 1012.51 1012.52 1012.53 1012.66 1012.91 1013.43 1013.47 1013.71 1014.10 1013.89 1013.33 1013.19 1012.98 1012.82 1012.85 1012.71 1012.53 1012.36 1012.17 1012.06 1011.82 1011.33 1010.75 1010.08 1009.47 1008.90 1008.47 1008.38 1007.94 1007.58 1007.49 1007.27 1006.68 1006.42 1006.36 1006.53 1006.20
1018.84 1018.48 1018.16 1018.83 1019.27 1019.05 1018.19 1017.06 1016.14 1015.61 1014.63 1013.44 1013.07 1012.75 1012.54 1012.35 1012.27 1012.33 1012.47 1012.54 1012.47 1012.81 1013.38 1013.43 1013.34 1013.02 1013.01 1012.52 1012.48 1012.53 1012.49 1012.47 1012.57 1012.71 1012.63 1012.30 1012.02 1011.83 1011.42 1011.02 1010.46 1009.91 1009.42 1008.97 1008.77 1008.45 1008.00 1007.76 1007.77 1007.83 1007.71 1007.43 1007.11 1007.15
1018.27 1017.58 1017.53 1018.17 1018.82 1018.77 1017.95 1016.48 1015.44 1014.39 1013.56 1013.18 1012.33 1012.20 1012.09 1012.03 1012.02 1012.12 1012.26 1012.20 1012.50 1012.62 1012.70 1012.51 1012.37 1012.26 1012.35 1012.30 1012.29 1012.41 1012.48 1012.43 1012.42 1012.50 1012.53 1012.47 1012.04 1011.83 1011.52 1011.14 1010.72 1010.32 1010.10 1009.84 1009.48 1009.22 1008.95 1008.70 1008.33 1007.94 1007.87 1007.94 1007.99 1008.05
1017.98 1017.47 1017.64 1017.88 1017.80 1017.55 1016.99 1015.48 1014.91 1013.75 1013.48 1012.59 1012.26 1011.81 1011.97 1012.11 1011.87 1011.89 1011.80 1011.85 1011.93 1012.02 1011.92 1011.89 1012.02 1012.25 1012.40 1012.47 1012.50 1012.45 1012.39 1012.26 1012.16 1012.24 1012.27 1012.34 1012.20 1011.93 1011.65 1011.30 1011.06 1010.86 1010.57 1010.35 1010.13 1009.96 1009.76 1009.54 1009.17 1008.99 1008.85 1008.78 1008.55 1008.48
1017.86 1017.44 1017.31 1017.02 1016.90 1016.39 1015.20 1014.22 1014.10 1013.19 1012.95 1012.14 1011.76 1011.61 1011.78 1011.85 1011.63 1011.88 1012.00 1012.11 1011.71 1011.30 1011.57 1011.75 1011.85 1012.01 1012.31 1012.41 1012.49 1012.51 1012.35 1012.32 1012.40 1012.37 1012.28 1012.15 1012.00 1011.74 1011.53 1011.25 1011.04 1010.94 1010.83 1010.69 1010.45 1010.28 1010.14 1009.81 1009.60 1009.53 1009.55 1009.58 1009.59 1009.71
1017.55 1017.38 1016.60 1016.07 1015.76 1015.20 1014.27 1013.66 1013.00 1012.46 1011.99 1011.89 1011.62 1011.28 1011.40 1011.32 1011.50 1011.90 1012.29 1012.13 1011.75 1011.64 1011.76 1011.79 1011.96 1012.46 1012.59 1012.64 1012.73 1012.51 1012.28 1012.20 1012.20 1012.17 1012.15 1012.17 1012.15 1011.68 1011.46 1011.21 1010.85 1010.73 1010.77 1010.73 1010.68 1010.57 1010.29 1010.12 1009.89 1009.86 1009.92 1010.05 1010.30 1010.41
1017.45 1016.69 1016.51 1015.77 1014.86 1014.30 1013.60 1012.75 1012.04 1011.97 1011.57 1011.53 1011.55 1010.99 1011.06 1011.27 1011.79 1012.33 1012.37 1012.13 1011.89 1011.91 1011.82 1011.91 1012.38 1012.31 1012.44 1012.50 1012.54 1012.20 1011.87 1012.03 1012.21 1012.30 1011.87 1011.89 1011.87 1011.63 1011.44 1011.21 1010.99 1011.00 1010.90 1010.86 1010.84 1010.72 1010.61 1010.46 1010.39 1010.33 1010.26 1010.36 1010.56 1010.74
1016.51 1015.68 1015.48 1014.62 1013.90 1013.45 1012.51 1011.79 1011.15 1010.97 1010.91 1010.97 1010.79 1010.63 1010.74 1011.31 1011.59 1011.70 1011.62 1011.31 1011.42 1011.34 1011.31 1011.53 1011.89 1012.10 1012.13 1011.98 1012.04 1011.95 1011.46 1011.59 1012.00 1012.02 1011.50 1011.31 1011.39 1011.51 1011.50 1011.62 1011.45 1010.88 1010.41 1010.45 1010.50 1010.43 1010.39 1010.33 1010.43 1010.60 1010.68 1010.79 1010.98 1011.08
1015.58 1014.86 1014.17 1013.27 1012.87 1012.34 1011.74 1010.92 1010.61 1010.58 1010.44 1010.34 1010.33 1010.33 1010.45 1010.55 1010.57 1010.48 1010.29 1010.43 1010.29 1010.02 1010.10 1010.34 1010.85 1011.20 1011.13 1011.06 1011.13 1010.80 1010.76 1011.04 1011.20 1011.04 1010.93 1010.78 1010.67 1010.82 1010.87 1010.93 1011.05 1010.51 1010.18 1010.36 1010.38 1010.27 1010.27 1010.34 1010.58 1010.80 1010.88 1010.82 1010.88 1010.93
1014.14 1013.69 1013.35 1012.55 1012.30 1011.58 1011.32 1010.65 1010.16 1009.94 1009.93 1009.91 1009.97 1009.98 1009.93 1009.62 1009.47 1009.14 1009.07 1008.81 1008.98 1009.16 1009.53 1009.77 1009.90 1010.05 1010.27 1010.09 1009.88 1010.07 1010.33 1010.60 1010.73 1010.74 1010.65 1010.49 1010.23 1010.24 1010.32 1010.34 1010.15 1010.05 1010.12 1010.22 1010.27 1010.21 1010.20 1010.20 1010.45 1010.73 1010.80 1010.88 1010.96 1011.13
1013.33 1012.57 1012.39 1011.85 1011.41 1010.77 1010.27 1009.91 1009.46 1009.18 1008.92 1009.30 1009.29 1009.04 1008.95 1008.60 1008.14 1008.30 1008.28 1008.40 1008.63 1009.18 1009.52 1009.62 1009.59 1009.51 1009.63 1009.71 1009.65 1009.65 1009.96 1010.31 1010.77 1010.83 1010.71 1010.75 1010.74 1010.36 1010.12 1010.19 1010.20 1010.22 1010.25 1010.24 1010.33 1010.37 1010.20 1010.21 1010.23 1010.43 1010.66 1011.06 1011.25 1011.34
1012.11 1011.59 1011.46 1010.75 1010.23 1009.63 1008.83 1008.45 1008.39 1008.06 1008.28 1008.34 1008.34 1008.46 1008.38 1008.23 1007.77 1007.55 1007.94 1008.37 1008.74 1008.90 1008.85 1008.85 1009.01 1009.48 1009.40 1009.51 1009.60 1009.67 1009.55 1009.73 1009.77 1010.18 1010.31 1010.21 1010.30 1009.96 1010.06 1010.20 1010.34 1010.39 1010.35 1010.46 1010.67 1010.79 1010.53 1010.60 1010.68 1010.84 1011.15 1011.32 1011.48 1011.68
1010.68 1010.64 1010.37 1009.83 1009.25 1008.43 1007.98 1007.82 1007.66 1007.75 1007.92 1008.18 1008.38 1008.48 1008.63 1008.51 1008.00 1007.65 1007.78 1007.63 1007.80 1008.10 1008.62 1008.84 1008.91 1008.94 1009.06 1009.10 1009.20 1009.31 1009.50 1009.09 1009.19 1009.30 1009.39 1009.48 1009.51 1009.68 1009.78 1009.81 1009.96 1010.02 1010.23 1010.41 1010.49 1010.70 1010.76 1010.85 1011.02 1011.15 1011.28 1011.41 1011.42 1011.62
1009.38 1009.43 1009.31 1009.11 1008.41 1007.73 1007.72 1007.83 1007.90 1007.89 1007.97 1008.14 1008.38 1008.30 1008.41 1008.48 1008.44 1007.74 1006.99 1007.34 1007.76 1007.94 1007.82 1007.95 1008.10 1007.90 1007.61 1007.63 1007.75 1008.03 1008.14 1008.05 1008.33 1008.27 1008.53 1008.98 1009.16 1009.14 1009.27 1009.45 1009.65 1009.77 1010.00 1010.17 1010.29 1010.48 1010.60 1010.76 1010.96 1011.12 1011.17 1011.19 1011.18 1011.09
1008.35 1008.23 1008.08 1008.11 1007.95 1007.86 1007.94 1007.89 1008.07 1008.01 1007.99 1008.10 1008.27 1008.24 1008.14 1008.28 1008.04 1006.91 1006.09 1005.92 1006.36 1006.66 1006.91 1006.93 1006.79 1006.67 1006.65 1006.66 1006.82 1007.18 1007.34 1007.29 1007.37 1007.62 1007.95 1008.25 1008.48 1008.81 1009.01 1009.22 1009.40 1009.58 1009.81 1010.00 1010.03 1010.06 1010.16 1010.38 1010.57 1010.74 1010.81 1010.74 1010.72 1010.68
Wind_Speed
10 11 11 13 13 13 13 14 13 13 14 14 15 15 14 13 12 4 3 3 3 1 5 3 3 3 0 1 2 5 5 4 4 5 2 2 1 2 3 3 2 5 4 4 1 3 7 5 6 2 3 3 3 3
10 11 12 13 13 13 13 14 13 13 13 13 14 13 13 11 11 4 2 3 1 2 6 3 7 8 7 11 1 3 3 3 4 4 2 2 3 3 1 3 4 2 5 3 7 6 5 4 5 7 2 5 5 4
11 11 12 13 13 13 13 13 13 13 13 13 14 13 12 10 9 5 2 3 2 2 5 4 5 4 4 11 10 4 3 4 2 3 3 2 3 2 2 4 2 3 2 2 4 4 5 7 6 7 3 6 8 7
11 12 13 12 14 13 14 13 13 13 12 12 13 12 12 10 8 5 2 2 1 2 3 8 3 9 4 3 10 14 5 3 1 2 3 4 3 4 4 4 3 5 2 4 5 8 9 8 5 7 8 6 6 6
12 12 12 13 12 12 13 13 13 13 12 12 11 11 12 10 9 3 3 3 2 3 3 7 12 5 6 7 9 12 8 7 3 3 3 4 3 2 3 1 4 7 7 5 7 8 6 7 5 6 9 8 6 5
12 12 12 13 12 12 14 14 14 13 12 12 10 11 11 9 8 2 2 2 3 3 2 5 5 7 7 7 6 7 7 7 4 4 4 3 4 4 3 5 8 10 8 8 7 7 7 8 12 10 8 13 9 7
12 13 12 13 12 13 14 13 15 13 13 10 10 10 9 7 2 2 4 1 4 2 1 5 6 6 5 4 3 3 3 1 2 2 2 3 3 4 3 16 7 12 11 13 11 10 9 11 12 11 6 10 7 6
11 12 13 14 13 13 12 13 13 13 12 11 11 10 8 7 6 5 4 10 4 1 2 3 6 6 3 3 4 3 3 3 2 2 1 2 2 2 5 5 5 7 9 8 7 7 15 16 9 10 7 6 7 9
13 13 13 14 12 12 12 13 14 13 12 12 11 10 2 2 2 2 0 11 2 1 2 2 2 5 3 1 1 4 2 2 2 3 3 2 2 5 3 3 6 7 6 9 13 10 8 10 13 10 7 9 8 9
12 14 16 15 12 12 13 13 14 15 15 13 2 1 1 1 9 7 2 2 2 1 2 4 1 5 2 2 3 1 1 2 3 3 2 3 4 1 3 5 8 10 10 8 7 10 10 12 7 9 9 7 6 7
13 14 16 16 13 12 13 13 12 14 2 1 1 2 2 2 2 2 2 2 2 3 4 5 5 3 2 2 3 2 2 2 2 3 1 3 3 2 5 10 10 9 10 13 10 11 12 13 14 12 10 9 7 6
13 14 16 16 13 13 13 11 9 4 1 2 2 2 1 1 2 2 3 2 4 5 4 4 6 6 3 2 1 1 2 1 4 2 2 3 3 4 8 14 14 13 12 14 13 14 14 14 11 8 7 9 7 6
14 14 16 15 15 15 13 10 7 7 6 1 2 2 3 2 2 5 5 4 3 4 5 4 3 4 0 2 1 2 3 5 2 2 3 3 5 7 11 11 11 14 13 14 13 12 11 8 6 4 6 6 4 6
14 16 16 16 17 21 17 12 7 3 2 2 3 3 4 4 5 6 6 5 5 4 3 3 2 4 3 3 2 3 3 1 3 2 3 4 6 10 11 11 12 12 8 12 11 12 12 11 9 7 6 6 5 6
15 16 16 16 8 8 6 6 6 2 2 3 2 5 7 6 5 5 5 3 6 2 2 1 1 3 1 2 2 1 1 3 3 4 4 4 6 8 11 12 12 8 9 8 11 13 16 7 7 5 4 5 6 6
15 15 1 0 8 9 4 5 2 1 2 3 5 4 4 0 5 2 3 5 3 1 1 3 1 0 3 3 2 4 4 6 5 4 3 3 6 7 10 12 11 8 8 8 10 11 13 12 9 5 5 2 3 6
11 4 3 13 16 12 5 3 2 4 4 4 5 4 4 4 6 5 4 4 0 3 1 1 2 7 3 1 2 5 5 4 4 4 3 3 5 7 8 10 11 10 9 8 7 9 10 10 12 16 16 8 9 5
4 4 5 11 11 4 1 3 3 4 7 6 4 4 4 4 4 4 3 2 3 2 3 5 3 2 4 4 3 4 3 3 3 4 3 3 4 6 5 8 10 10 9 7 6 5 6 9 13 12 11 11 10 8
6 8 13 9 4 3 2 4 4 4 7 4 5 3 4 4 3 3 2 2 2 2 1 2 1 3 5 4 4 4 3 3 2 2 2 3 4 5 6 7 7 7 8 7 6 5 4 6 5 4 5 6 5 6
15 18 20 10 5 2 4 5 3 4 5 5 2 3 3 3 1 2 1 1 3 3 1 3 5 4 4 4 4 3 2 2 1 2 3 3 3 4 5 6 5 5 5 5 4 6 5 5 5 4 3 4 5 5
6 1 6 9 4 5 4 4 4 5 4 3 3 2 3 0 2 1 3 3 2 3 3 4 3 2 1 0 0 1 1 3 2 3 3 2 3 2 3 4 5 4 4 4 5 6 7 5 5 6 7 6 4 4
3 7 2 4 3 5 5 4 4 4 2 4 4 2 1 2 2 2 1 1 2 2 3 3 2 2 1 2 2 2 3 0 1 1 2 2 2 2 3 3 4 4 4 3 3 3 3 4 4 5 6 6 7 7
7 3 2 4 5 2 8 1 3 4 3 4 3 1 2 2 2 1 2 2 2 2 2 2 3 2 1 2 2 2 0 2 1 1 2 2 2 3 3 3 2 2 4 4 3 2 2 5 2 3 4 4 6 6
6 2 4 4 6 5 2 3 3 3 2 2 2 3 2 1 1 3 2 3 3 1 1 3 3 3 3 2 2 3 2 1 1 2 1 1 3 3 3 4 3 1 2 1 2 2 3 3 4 3 2 3 4 4
2 5 4 5 4 4 4 4 4 1 4 2 2 3 2 2 2 1 3 3 2 2 3 2 1 2 3 3 3 4 4 3 2 2 3 4 2 2 3 3 3 2 1 2 2 2 2 3 3 3 4 2 3 4
4 5 7 5 4 4 5 4 3 5 2 2 5 1 2 3 1 4 4 4 4 5 5 6 5 3 3 4 3 3 4 4 3 2 4 4 5 3 2 2 4 5 2 2 3 1 0 3 2 2 4 4 5 5
4 6 5 5 3 2 4 4 3 1 3 1 1 1 1 2 3 4 2 3 4 5 5 5 5 5 5 4 4 5 3 5 5 5 3 4 4 4 4 3 4 5 2 2 1 1 2 2 3 2 3 2 4 5
6 3 6 3 3 4 3 3 3 2 2 1 2 1 2 2 3 3 5 4 5 4 4 4 5 6 5 5 5 3 2 3 2 2 3 4 2 3 5 4 4 5 1 3 3 1 2 4 4 4 4 4 1 3
4 3 2 5 5 4 6 6 4 4 5 4 3 3 4 4 3 3 3 4 4 5 2 3 4 4 3 2 4 3 3 5 5 3 5 3 3 4 1 3 2 1 2 3 3 2 2 2 4 4 5 2 1 1
5 5 4 4 4 5 5 6 4 3 3 4 2 2 3 3 3 2 4 4 5 5 5 4 2 3 4 4 3 4 3 4 5 5 5 5 6 3 4 4 4 4 3 2 3 3 5 4 4 3 3 1 2 2
2 3 3 4 4 5 5 4 2 1 2 2 0 2 1 3 4 2 3 4 5 4 4 3 4 5 4 4 4 3 5 4 7 9 6 3 2 4 5 5 5 4 4 4 3 3 2 2 2 2 3 3 4 3
5 8 4 3 5 3 2 1 2 1 0 2 1 2 2 4 2 4 4 5 3 3 6 5 4 7 8 7 5 5 7 5 6 6 8 6 5 5 5 5 5 4 4 5 4 4 5 5 5 6 6 7 7 7
1 3 4 3 1 1 2 2 2 1 1 2 2 3 3 4 5 5 2 5 8 7 6 6 6 6 7 9 8 6 8 6 7 9 10 10 11 9 5 4 4 4 6 5 6 5 6 6 6 7 7 8 7 7
Wind_Direction
333 332 332 335 339 338 335 335 337 334 330 334 337 344 351 355 356 19 289 343 104 298 277 232 245 209 337 122 193 294 354 344 3 47 51 297 237 283 342 276 215 187 195 225 215 218 276 314 349 15 177 249 251 278
326 323 325 328 332 333 331 331 331 329 325 328 329 336 343 347 353 28 326 333 333 219 248 266 241 240 201 221 122 288 201 261 225 65 7 345 340 343 144 269 340 269 196 222 178 221 212 248 263 275 255 221 244 262
320 317 319 323 327 329 329 327 326 322 322 327 322 329 334 335 347 359 269 276 32 303 290 355 237 258 218 219 196 170 279 229 320 162 180 214 251 137 250 250 285 297 189 262 14 296 241 244 261 264 225 224 241 236
315 315 317 322 326 327 327 325 318 316 315 317 316 328 327 323 330 336 275 296 102 296 296 281 307 288 216 233 193 212 229 333 157 110 206 203 192 180 226 239 194 213 343 224 256 287 294 276 242 255 284 289 285 257
311 310 313 321 321 320 319 318 316 316 313 307 313 324 322 319 322 298 228 238 173 131 281 286 313 262 256 209 223 213 213 237 232 214 177 232 210 167 231 40 235 214 226 195 245 239 215 256 267 243 272 270 276 280
307 307 315 313 317 313 309 313 317 313 311 314 312 308 314 314 333 359 328 225 194 177 314 308 285 292 312 325 346 171 199 214 211 177 215 217 223 181 247 240 249 246 239 222 251 242 217 258 283 252 242 272 267 248
305 311 309 308 306 314 302 308 314 311 306 300 301 300 298 309 44 192 203 187 152 111 259 290 296 278 300 358 351 357 2 294 172 234 234 216 248 190 221 263 283 273 271 280 265 270 281 247 253 272 234 262 282 248
303 298 300 302 305 304 304 306 308 304 302 297 302 294 298 297 270 284 246 216 172 184 196 278 274 331 333 331 323 357 349 359 320 236 275 217 303 219 248 258 319 311 311 292 314 276 245 262 277 266 258 259 248 252
296 300 306 307 305 306 304 308 312 309 305 299 297 299 291 177 205 261 46 139 116 210 265 232 259 266 353 305 271 340 44 322 274 243 238 145 201 231 235 288 296 286 275 282 304 298 292 246 256 251 252 260 235 255
298 303 308 311 308 306 307 310 317 316 303 296 186 172 242 234 123 114 34 117 205 220 231 248 203 264 101 354 305 331 82 259 306 253 309 212 251 279 244 249 268 279 278 278 297 306 318 306 297 270 241 247 232 241
298 301 305 304 304 303 304 307 313 320 107 22 37 59 337 96 24 215 207 210 180 236 215 234 201 237 278 171 238 143 289 278 275 279 278 271 270 249 296 304 301 294 278 276 257 256 260 255 270 266 265 253 246 237
297 301 303 299 301 295 296 300 318 348 78 214 257 297 356 280 225 251 219 159 218 240 220 200 223 193 255 146 166 187 248 258 254 307 269 263 259 283 308 308 309 306 298 287 279 277 276 265 253 252 245 253 246 240
300 301 298 303 299 290 285 283 292 281 307 78 211 209 167 221 215 211 215 239 237 217 222 203 233 177 139 103 215 178 239 232 347 234 261 276 279 305 310 312 310 309 329 335 327 305 275 273 267 251 270 266 273 229
301 296 294 297 296 290 274 253 255 296 102 188 190 261 197 215 225 204 208 208 230 214 233 180 222 181 178 157 188 231 248 340 283 296 264 269 285 305 312 310 306 321 326 329 324 318 294 266 259 252 248 241 226 212
300 304 301 300 295 22 66 150 178 136 150 235 251 239 222 228 249 240 237 278 246 232 189 164 55 129 177 189 189 272 23 336 236 241 237 267 295 308 317 322 325 342 332 329 334 338 331 270 246 262 252 254 210 200
313 314 275 10 354 326 258 143 130 128 253 227 237 266 243 333 274 254 246 254 235 172 80 61 147 143 241 168 198 182 177 222 244 224 253 301 309 308 319 323 323 329 327 340 338 340 345 14 35 46 48 86 161 151
314 243 155 19 1 341 138 120 136 217 242 232 246 216 226 264 240 249 212 239 190 74 247 230 241 218 131 185 232 186 212 225 234 276 277 252 284 305 315 321 329 333 324 321 341 341 5 12 21 37 36 25 60 48
240 285 350 4 355 329 207 196 227 232 241 237 236 234 202 223 239 266 243 205 127 167 136 216 144 205 211 207 240 238 249 270 255 252 246 263 290 313 318 321 326 328 321 326 17 333 8 36 38 26 8 11 37 46
264 276 287 304 316 311 288 216 183 250 238 229 246 237 219 241 222 213 208 209 143 121 106 50 146 217 237 213 226 253 241 221 247 292 297 267 288 309 315 317 315 340 355 15 13 356 6 42 67 81 18 24 24 356
276 269 262 246 203 246 260 260 204 238 262 240 262 262 206 217 156 207 291 265 132 120 168 209 217 217 210 229 203 231 217 203 148 342 312 295 298 320 332 326 317 325 347 2 7 3 7 29 34 53 42 27 39 27
304 270 63 135 182 223 263 272 266 220 259 250 255 202 256 176 233 236 205 185 121 183 224 218 227 254 246 144 172 211 204 177 196 186 225 293 285 298 323 319 344 2 17 1 9 8 24 17 359 17 31 34 31 51
267 309 164 198 228 204 247 227 230 271 275 253 304 192 199 279 296 254 238 137 179 246 216 180 180 153 225 274 283 250 255 57 52 341 323 319 320 338 326 329 352 350 348 345 19 30 8 360 25 35 34 31 37 30
302 186 232 210 233 219 256 165 218 249 236 264 354 269 189 257 230 351 320 319 252 222 189 161 165 135 107 4 338 305 258 130 31 306 287 281 287 299 292 298 290 349 8 352 327 0 6 350 3 48 42 44 53 52
212 258 238 229 194 251 281 255 223 260 266 311 281 275 197 229 38 51 316 291 271 44 25 178 116 91 23 13 308 272 277 104 58 332 266 14 337 316 314 304 316 306 187 259 19 37 15 2 358 44 73 74 68 70
227 255 130 278 274 262 243 252 231 176 249 196 258 261 207 98 72 257 240 264 211 187 222 157 263 205 166 228 268 263 242 172 191 274 272 191 234 298 328 319 318 294 226 80 29 49 22 38 45 53 55 107 117 85
242 221 174 222 240 198 223 271 221 229 240 216 229 269 91 115 164 250 237 206 200 194 194 192 190 205 248 212 215 243 244 163 146 262 276 200 196 179 218 301 319 304 256 187 169 160 113 177 137 121 94 80 144 142
244 255 236 229 236 282 282 263 260 187 259 249 261 76 99 265 239 249 234 221 183 207 197 180 171 197 214 228 229 246 216 161 179 212 277 276 230 184 178 176 216 246 181 176 277 63 205 274 119 166 158 171 191 204
222 235 203 232 214 215 238 263 259 252 255 202 147 196 221 240 253 235 206 202 194 162 186 200 203 205 217 225 234 232 223 165 205 309 322 329 314 215 216 223 239 249 177 189 199 21 324 241 201 210 203 204 267 29
241 245 173 254 231 237 212 210 223 230 190 154 204 208 229 229 215 187 229 174 135 127 146 177 236 205 246 246 255 242 160 149 142 228 219 240 320 296 217 182 177 166 229 251 56 71 152 141 165 189 195 154 127 71
244 183 211 242 218 224 240 178 219 225 179 195 184 14 348 311 275 165 120 121 137 183 200 198 185 168 219 175 237 284 229 202 188 172 188 217 223 235 190 177 186 209 212 204 153 109 57 66 72 74 89 78 35 49
245 165 221 225 242 237 231 214 242 147 173 136 290 151 222 304 318 289 199 186 179 162 145 204 231 220 210 225 195 211 270 237 214 228 222 232 197 187 193 192 199 189 181 191 202 140 157 190 174 181 221 249 271 215
184 189 193 228 262 276 114 156 167 119 330 72 340 351 17 41 308 269 219 147 135 199 232 214 223 249 210 221 207 192 206 202 201 219 201 191 196 203 202 182 186 189 192 203 219 204 210 194 196 205 237 252 260 264
223 184 193 189 315 34 339 104 44 49 132 153 211 227 198 164 232 255 281 199 195 201 213 214 226 242 232 202 193 195 202 207 202 182 180 172 172 178 178 185 189 186 186 202 218 193 187 186 185 196 224 241 246 259